M I D A S
Marine Information and Data Acquisition System
Tripno 675 of the Zeeleeuw from 2004-03-24 07:31:20 to 2004-03-24 15:50:46
Back to CruiseResearch ActivitiesStationsMapUnderway DataData graphs

EquipmentUnitsComments
TimeDGPSUTC
LatitudeDGPSDM.mWGS84
LongitudeDGPSDM.mWGS84
SpeedMeteo Stationm/sRelative wind speed
DirectionMeteo StationdegRelative wind direction
TemperatureMeteo Stationdeg CelciusAir temperature
PressureMeteo StationPaAtmospheric pressure
HumidityMeteo Station%Relative humidity
Missing or incorrect values are displayed as -999
Metereological data collected by the RV Zeeleeuw from 2004-03-24 07:31:20 to 2004-03-24 15:50:46
Time Latitude Longitude Speed Direction Temperature Pressure Humidity
2004-03-24 07:32 51°13.594 2°56.096 2.3 253 6.5 101920 75
2004-03-24 07:33 51°13.581 2°56.126 4.2 290 6.6 101920 75
2004-03-24 07:34 51°13.558 2°56.199 2.4 289 6.6 101920 74
2004-03-24 07:35 51°13.514 2°56.241 2.1 183 6.6 101930 74
2004-03-24 07:36 51°13.532 2°56.249 1.3 207 6.6 101930 74
2004-03-24 07:37 51°13.53 2°56.238 4.3 152 6.7 101930 74
2004-03-24 07:38 51°13.537 2°56.2 3.8 40 6.7 101930 73
2004-03-24 07:39 51°13.586 2°56.06 5.2 40 6.7 101940 73
2004-03-24 07:40 51°13.649 2°55.91 5.4 34 6.7 101930 73
2004-03-24 07:41 51°13.714 2°55.766 5.9 27 6.7 101930 74
2004-03-24 07:42 51°13.809 2°55.644 8.9 22 6.7 101920 73
2004-03-24 07:43 51°13.925 2°55.559 9.4 30 6.7 101920 74
2004-03-24 07:44 51°14.054 2°55.465 9.4 22 6.6 101910 72
2004-03-24 07:45 51°14.194 2°55.352 8.6 30 6.6 101920 73
2004-03-24 07:46 51°14.319 2°55.155 9.4 32 6.6 101920 74
2004-03-24 07:47 51°14.467 2°54.927 13.1 25 6.5 101900 74
2004-03-24 07:48 51°14.659 2°54.762 11.4 19 6.4 101940 73
2004-03-24 07:49 51°14.862 2°54.65 12 25 6.5 101940 74
2004-03-24 07:50 51°15.062 2°54.546 11.5 18 6.5 101940 74
2004-03-24 07:51 51°15.256 2°54.447 12.5 21 6.6 101890 73
2004-03-24 07:52 51°15.461 2°54.385 14.5 11 6.6 101890 74
2004-03-24 07:53 51°15.672 2°54.333 14.8 7 6.6 101900 74
2004-03-24 07:54 51°15.887 2°54.346 14.8 9 6.6 101910 74
2004-03-24 07:55 51°16.084 2°54.268 13.1 18 6.6 101910 73
2004-03-24 07:56 51°16.218 2°54.255 8.9 342 6.6 101940 74
2004-03-24 07:57 51°16.255 2°54.301 7.6 312 6.7 101940 75
2004-03-24 07:58 51°16.24 2°54.272 6 284 6.5 101940 73
2004-03-24 07:59 51°16.224 2°54.255 5.7 284 6.7 101950 75
2004-03-24 08:00 51°16.208 2°54.252 6.7 295 6.6 101950 74
2004-03-24 08:01 51°16.197 2°54.254 7.3 303 6.6 101950 73
2004-03-24 08:02 51°16.19 2°54.257 7.1 328 6.6 101950 73
2004-03-24 08:03 51°16.19 2°54.258 5.8 323 6.8 101940 73
2004-03-24 08:04 51°16.194 2°54.258 5.9 331 6.9 101940 74
2004-03-24 08:05 51°16.197 2°54.258 7.5 328 6.8 101940 74
2004-03-24 08:06 51°16.218 2°54.27 9.7 356 6.8 101940 73
2004-03-24 08:07 51°16.319 2°54.156 12.5 37 6.8 101920 74
2004-03-24 08:08 51°16.455 2°53.884 14.3 32 6.5 101890 72
2004-03-24 08:09 51°16.588 2°53.58 12 39 6.5 101890 73
2004-03-24 08:10 51°16.672 2°53.228 12.1 44 6.4 101890 73
2004-03-24 08:11 51°16.768 2°52.89 12 39 6.4 101890 74
2004-03-24 08:12 51°16.884 2°52.589 14.2 27 6.4 101900 75
2004-03-24 08:13 51°17.06 2°52.381 13.2 28 6.4 101900 74
2004-03-24 08:14 51°17.247 2°52.193 13.1 20 6.5 101910 75
2004-03-24 08:15 51°17.44 2°52.018 14.1 24 6.5 101910 75
2004-03-24 08:16 51°17.613 2°51.79 12.7 26 6.5 101900 74
2004-03-24 08:17 51°17.782 2°51.556 13.3 30 6.5 101920 74
2004-03-24 08:18 51°17.949 2°51.321 13.5 26 6.5 101910 75
2004-03-24 08:19 51°18.087 2°51.127 13.6 23 6.5 101920 74
2004-03-24 08:20 51°18.213 2°50.945 11.9 18 6.4 101920 74
2004-03-24 08:21 51°18.38 2°50.863 11.9 349 6.4 101940 75
2004-03-24 08:22 51°18.459 2°50.932 10.1 324 6.4 101940 76
2004-03-24 08:23 51°18.487 2°50.989 8.3 319 6.4 101940 75
2004-03-24 08:24 51°18.499 2°51.014 8.5 318 6.5 101940 75
2004-03-24 08:25 51°18.496 2°51.02 7.8 228 6.5 101940 75
2004-03-24 08:26 51°18.493 2°51.019 6.5 330 6.6 101940 75
2004-03-24 08:27 51°18.489 2°51.015 7.6 322 6.6 101950 75
2004-03-24 08:28 51°18.483 2°51.012 7.1 319 6.6 101940 74
2004-03-24 08:29 51°18.477 2°51.009 7.4 322 6.6 101950 74
2004-03-24 08:30 51°18.47 2°51.006 7.2 317 6.6 101950 73
2004-03-24 08:31 51°18.462 2°51.002 7 317 6.5 101950 73
2004-03-24 08:32 51°18.454 2°50.996 7.2 325 6.6 101960 74
2004-03-24 08:33 51°18.446 2°50.985 7.3 345 6.7 101960 74
2004-03-24 08:34 51°18.437 2°50.971 7.9 351 6.7 101960 72
2004-03-24 08:35 51°18.427 2°50.953 6.2 356 6.6 101960 71
2004-03-24 08:36 51°18.477 2°50.938 11.5 346 6.6 101950 72
2004-03-24 08:37 51°18.571 2°51.127 12.1 331 6.6 101930 73
2004-03-24 08:38 51°18.652 2°51.42 12.8 330 6.6 101910 72
2004-03-24 08:39 51°18.734 2°51.726 13 334 6.6 101910 72
2004-03-24 08:40 51°18.818 2°52.031 12.7 331 6.6 101920 73
2004-03-24 08:41 51°18.903 2°52.338 12.9 337 6.6 101920 73
2004-03-24 08:42 51°18.98 2°52.648 14.6 335 6.7 101920 74
2004-03-24 08:43 51°19.052 2°52.959 13.6 336 6.6 101920 73
2004-03-24 08:44 51°19.124 2°53.27 13.3 335 6.6 101920 73
2004-03-24 08:45 51°19.197 2°53.58 13.5 335 6.6 101920 74
2004-03-24 08:46 51°19.27 2°53.887 14.2 328 6.5 101910 74
2004-03-24 08:47 51°19.341 2°54.195 13.1 329 6.5 101920 73
2004-03-24 08:48 51°19.412 2°54.499 13.3 331 6.5 101910 74
2004-03-24 08:49 51°19.483 2°54.803 12.3 328 6.5 101910 73
2004-03-24 08:50 51°19.553 2°55.108 12.8 329 6.5 101920 74
2004-03-24 08:51 51°19.624 2°55.41 13.9 334 6.6 101920 74
2004-03-24 08:52 51°19.694 2°55.712 13.4 335 6.6 101910 74
2004-03-24 08:53 51°19.758 2°56.017 14.4 326 6.5 101910 72
2004-03-24 08:54 51°19.818 2°56.325 13 328 6.5 101920 71
2004-03-24 08:55 51°19.88 2°56.63 13.2 331 6.5 101920 72
2004-03-24 08:56 51°19.937 2°56.936 13.7 331 6.6 101920 72
2004-03-24 08:57 51°19.999 2°57.237 14.3 325 6.7 101910 74
2004-03-24 08:58 51°20.061 2°57.54 13.9 327 6.8 101900 75
2004-03-24 08:59 51°20.122 2°57.84 13.1 325 6.7 101910 74
2004-03-24 09:00 51°20.183 2°58.141 13.4 331 6.7 101910 74
2004-03-24 09:01 51°20.245 2°58.441 13.8 330 6.7 101910 74
2004-03-24 09:02 51°20.308 2°58.743 12.7 327 6.7 101920 74
2004-03-24 09:03 51°20.37 2°59.046 14.3 326 6.7 101920 74
2004-03-24 09:04 51°20.429 2°59.354 13.7 334 6.7 101910 74
2004-03-24 09:05 51°20.494 2°59.657 13.8 333 6.6 101920 75
2004-03-24 09:06 51°20.554 2°59.964 13.5 332 6.6 101920 75
2004-03-24 09:07 51°20.615 3°0.271 14.4 332 6.5 101920 75
2004-03-24 09:08 51°20.678 3°0.577 12.8 347 6.5 101930 76
2004-03-24 09:09 51°20.742 3°0.883 15.1 338 6.5 101940 77
2004-03-24 09:10 51°20.805 3°1.189 15.4 336 6.4 101920 77
2004-03-24 09:11 51°20.869 3°1.495 14.6 334 6.3 101930 77
2004-03-24 09:12 51°20.93 3°1.804 15.6 332 6.2 101930 77
2004-03-24 09:13 51°20.995 3°2.108 14.7 330 6.2 101930 76
2004-03-24 09:14 51°21.055 3°2.418 13.4 328 6.2 101930 76
2004-03-24 09:15 51°21.115 3°2.726 13.6 331 6.2 101930 76
2004-03-24 09:16 51°21.178 3°3.032 13.3 331 6.1 101930 75
2004-03-24 09:17 51°21.24 3°3.341 13 333 6.2 101930 76
2004-03-24 09:18 51°21.301 3°3.65 14.3 328 6.2 101930 74
2004-03-24 09:19 51°21.363 3°3.959 13.4 333 6.2 101920 74
2004-03-24 09:20 51°21.419 3°4.27 12.5 332 6.3 101940 76
2004-03-24 09:21 51°21.459 3°4.593 13.6 332 6.3 101940 76
2004-03-24 09:22 51°21.542 3°4.884 14.4 330 6.3 101930 77
2004-03-24 09:23 51°21.6 3°5.197 12.8 330 6.2 101940 77
2004-03-24 09:24 51°21.658 3°5.508 13.9 328 6.2 101940 76
2004-03-24 09:25 51°21.716 3°5.819 12.6 330 6.2 101940 76
2004-03-24 09:26 51°21.776 3°6.133 13.4 325 6.3 101940 75
2004-03-24 09:27 51°21.835 3°6.445 13.2 326 6.3 101930 75
2004-03-24 09:28 51°21.893 3°6.759 11.9 331 6.3 101940 74
2004-03-24 09:29 51°21.947 3°7.074 13 326 6.4 101940 74
2004-03-24 09:30 51°21.994 3°7.394 11.7 321 6.4 101940 74
2004-03-24 09:31 51°22.042 3°7.713 12.8 321 6.4 101940 74
2004-03-24 09:32 51°22.083 3°8.035 12 327 6.3 101940 74
2004-03-24 09:33 51°22.11 3°8.361 11.6 322 6.3 101930 75
2004-03-24 09:34 51°22.137 3°8.69 12.3 317 6.3 101940 76
2004-03-24 09:35 51°22.166 3°9.018 12.5 315 6.3 101950 76
2004-03-24 09:36 51°22.194 3°9.35 12.6 320 6.3 101940 77
2004-03-24 09:37 51°22.224 3°9.682 10.5 322 6.4 101940 77
2004-03-24 09:38 51°22.256 3°10.017 11.2 323 6.4 101940 77
2004-03-24 09:39 51°22.287 3°10.354 10.3 317 6.4 101950 77
2004-03-24 09:40 51°22.323 3°10.692 11.3 320 6.4 101940 77
2004-03-24 09:41 51°22.358 3°11.03 10.1 323 6.4 101950 78
2004-03-24 09:42 51°22.393 3°11.362 11 325 6.4 101950 78
2004-03-24 09:43 51°22.427 3°11.694 12 332 6.5 101950 78
2004-03-24 09:44 51°22.464 3°12.022 11.5 329 6.5 101940 76
2004-03-24 09:45 51°22.501 3°12.351 12.5 332 6.4 101950 75
2004-03-24 09:46 51°22.536 3°12.681 13.5 329 6.5 101940 75
2004-03-24 09:47 51°22.573 3°12.983 11 328 6.6 101940 75
2004-03-24 09:48 51°22.605 3°13.138 9.4 335 6.6 101980 75
2004-03-24 09:49 51°22.628 3°13.186 6.3 332 6.7 101980 75
2004-03-24 09:50 51°22.618 3°13.173 7.4 306 6.7 101980 74
2004-03-24 09:51 51°22.607 3°13.168 7.3 307 6.7 101990 74
2004-03-24 09:52 51°22.6 3°13.167 7 319 6.8 101990 75
2004-03-24 09:53 51°22.597 3°13.167 7.9 326 6.8 102000 75
2004-03-24 09:54 51°22.596 3°13.169 7.9 321 6.8 101990 73
2004-03-24 09:55 51°22.595 3°13.171 6.7 322 6.9 101990 74
2004-03-24 09:56 51°22.596 3°13.175 6.6 325 6.9 101990 73
2004-03-24 09:57 51°22.598 3°13.179 5.9 326 6.9 101990 73
2004-03-24 09:58 51°22.604 3°13.189 7 327 7 101990 73
2004-03-24 09:59 51°22.648 3°13.293 10 346 7 101980 73
2004-03-24 10:00 51°22.769 3°13.52 13.4 349 6.9 101950 74
2004-03-24 10:01 51°22.917 3°13.755 13.1 351 6.8 101960 74
2004-03-24 10:02 51°23.074 3°13.986 12 349 6.8 101950 75
2004-03-24 10:03 51°23.23 3°14.21 14 357 6.7 101970 76
2004-03-24 10:04 51°23.391 3°14.426 14.3 360 6.6 101960 76
2004-03-24 10:05 51°23.56 3°14.631 14.2 355 6.6 101950 77
2004-03-24 10:06 51°23.733 3°14.822 13.3 357 6.5 101960 77
2004-03-24 10:07 51°23.904 3°15.011 12.6 354 6.4 101960 76
2004-03-24 10:08 51°24.074 3°15.198 12.6 356 6.4 101960 76
2004-03-24 10:09 51°24.246 3°15.384 13.2 354 6.3 101970 75
2004-03-24 10:10 51°24.417 3°15.578 13.2 353 6.4 101960 75
2004-03-24 10:11 51°24.578 3°15.795 13.6 348 6.4 101960 75
2004-03-24 10:12 51°24.738 3°16.028 13.1 353 6.4 101950 75
2004-03-24 10:13 51°24.898 3°16.273 13.1 349 6.4 101950 75
2004-03-24 10:14 51°25.051 3°16.524 12.7 347 6.5 101960 75
2004-03-24 10:15 51°25.203 3°16.773 13.1 351 6.5 101960 75
2004-03-24 10:16 51°25.35 3°17.021 12.8 352 6.5 101960 75
2004-03-24 10:17 51°25.496 3°17.268 13.5 350 6.5 101970 75
2004-03-24 10:18 51°25.644 3°17.517 12.8 349 6.5 101970 75
2004-03-24 10:19 51°25.787 3°17.674 10 9 6.4 101980 75
2004-03-24 10:20 51°25.884 3°17.732 8.9 354 6.4 102000 74
2004-03-24 10:21 51°25.92 3°17.805 6.2 339 6.3 102000 74
2004-03-24 10:22 51°25.912 3°17.826 6.1 334 6.4 102010 75
2004-03-24 10:23 51°25.902 3°17.845 6.6 329 6.5 102010 75
2004-03-24 10:24 51°25.893 3°17.866 5.7 338 6.6 102010 75
2004-03-24 10:25 51°25.887 3°17.888 6.6 340 6.8 102010 76
2004-03-24 10:26 51°25.882 3°17.907 7.6 344 6.8 102010 75
2004-03-24 10:27 51°25.877 3°17.925 6.6 351 6.7 102010 74
2004-03-24 10:28 51°25.873 3°17.94 6 3 6.7 102020 74
2004-03-24 10:29 51°25.871 3°17.952 5.8 7 6.7 102020 75
2004-03-24 10:30 51°25.869 3°17.96 7.2 31 6.7 102020 76
2004-03-24 10:31 51°25.881 3°17.882 7.6 81 6.6 101990 74
2004-03-24 10:32 51°25.879 3°17.598 8.7 64 6.4 101980 76
2004-03-24 10:33 51°25.835 3°17.266 8.8 54 6.3 101980 76
2004-03-24 10:34 51°25.797 3°16.929 9.1 55 6.3 101980 77
2004-03-24 10:35 51°25.762 3°16.593 9.4 60 6.1 101980 77
2004-03-24 10:36 51°25.722 3°16.257 7.9 67 6.1 101990 78
2004-03-24 10:37 51°25.71 3°15.916 9.1 52 6.1 101990 78
2004-03-24 10:38 51°25.691 3°15.573 7.5 52 6.1 101980 78
2004-03-24 10:39 51°25.644 3°15.232 6.8 70 6 101990 78
2004-03-24 10:40 51°25.556 3°14.906 7.5 52 6.1 102000 78
2004-03-24 10:41 51°25.508 3°14.556 7 62 6.1 101990 78
2004-03-24 10:42 51°25.453 3°14.201 6.7 55 6.1 102000 78
2004-03-24 10:43 51°25.405 3°13.837 7.8 71 6.1 102000 78
2004-03-24 10:44 51°25.361 3°13.472 7.3 68 6.1 101990 78
2004-03-24 10:45 51°25.321 3°13.105 7.1 71 6.1 101990 77
2004-03-24 10:46 51°25.297 3°12.737 7.5 78 6.1 101990 77
2004-03-24 10:47 51°25.28 3°12.369 7.5 78 6.2 102000 78
2004-03-24 10:48 51°25.27 3°12.002 9.5 65 6.1 102000 77
2004-03-24 10:49 51°25.337 3°11.662 10.1 50 6.1 101990 78
2004-03-24 10:50 51°25.43 3°11.345 12.3 51 6.1 101990 77
2004-03-24 10:51 51°25.544 3°11.062 11.4 43 6.1 101980 77
2004-03-24 10:52 51°25.683 3°10.846 11.1 48 6.1 101980 77
2004-03-24 10:53 51°25.794 3°10.604 12.4 44 6.1 101990 76
2004-03-24 10:54 51°25.909 3°10.371 10.2 64 6.1 101980 76
2004-03-24 10:55 51°25.982 3°10.075 11.5 54 6.1 101990 75
2004-03-24 10:56 51°26.037 3°9.757 9.2 72 6.1 101990 77
2004-03-24 10:57 51°26.106 3°9.436 10.8 74 6.1 101990 78
2004-03-24 10:58 51°26.163 3°9.093 11.7 62 6 102000 79
2004-03-24 10:59 51°26.219 3°8.741 9.2 74 5.9 102000 79
2004-03-24 11:00 51°26.324 3°8.462 13.4 31 5.9 102000 79
2004-03-24 11:01 51°26.414 3°8.448 10 16 5.9 102030 79
2004-03-24 11:02 51°26.443 3°8.47 8.9 22 5.9 102040 79
2004-03-24 11:03 51°26.435 3°8.46 7.7 15 5.9 102040 80
2004-03-24 11:04 51°26.423 3°8.44 8.3 40 5.9 102040 79
2004-03-24 11:05 51°26.407 3°8.41 8 57 5.8 102030 79
2004-03-24 11:06 51°26.393 3°8.378 8.1 44 5.8 102030 80
2004-03-24 11:07 51°26.38 3°8.346 7.5 44 5.8 102030 79
2004-03-24 11:08 51°26.366 3°8.316 6.9 39 5.7 102030 79
2004-03-24 11:09 51°26.352 3°8.294 7.3 23 5.7 102030 79
2004-03-24 11:10 51°26.349 3°8.282 9.1 38 5.8 102030 79
2004-03-24 11:11 51°26.443 3°8.168 12.1 43 5.8 102020 79
2004-03-24 11:12 51°26.598 3°7.962 12.5 52 5.8 102010 77
2004-03-24 11:13 51°26.716 3°7.662 11.7 50 5.7 102020 76
2004-03-24 11:14 51°26.836 3°7.361 11.2 51 5.7 102010 76
2004-03-24 11:15 51°26.96 3°7.063 10.4 44 5.7 102030 77
2004-03-24 11:16 51°27.085 3°6.767 11.9 46 5.7 102020 77
2004-03-24 11:17 51°27.208 3°6.466 10.7 44 5.7 102010 76
2004-03-24 11:18 51°27.332 3°6.164 11 44 5.7 102020 77
2004-03-24 11:19 51°27.448 3°5.849 10.7 50 5.7 102020 76
2004-03-24 11:20 51°27.561 3°5.526 9.9 51 5.8 102020 76
2004-03-24 11:21 51°27.675 3°5.201 10.5 53 5.8 102040 77
2004-03-24 11:22 51°27.789 3°4.879 9.9 48 5.8 102030 76
2004-03-24 11:23 51°27.904 3°4.556 10.4 49 5.8 102020 77
2004-03-24 11:24 51°28.02 3°4.23 10.3 51 5.8 102030 77
2004-03-24 11:25 51°28.137 3°3.902 10 49 5.8 102020 77
2004-03-24 11:26 51°28.232 3°3.636 7.6 62 5.8 102040 78
2004-03-24 11:27 51°28.262 3°3.504 6.1 102 5.8 102050 78
2004-03-24 11:28 51°28.237 3°3.462 6.1 135 5.8 102050 78
2004-03-24 11:29 51°28.208 3°3.428 5.8 134 5.8 102060 77
2004-03-24 11:30 51°28.181 3°3.389 5.2 136 5.8 102050 77
2004-03-24 11:31 51°28.151 3°3.334 4.3 143 5.8 102050 77
2004-03-24 11:32 51°28.121 3°3.279 5.7 139 5.9 102050 78
2004-03-24 11:33 51°28.094 3°3.24 5.4 133 5.9 102040 77
2004-03-24 11:34 51°28.065 3°3.207 5.2 136 5.9 102050 77
2004-03-24 11:35 51°28.037 3°3.18 5.7 152 5.9 102050 78
2004-03-24 11:36 51°28.004 3°3.127 3.2 123 6 102050 78
2004-03-24 11:37 51°27.925 3°2.834 5.4 60 5.9 102050 78
2004-03-24 11:38 51°27.861 3°2.433 6.3 53 5.9 102050 78
2004-03-24 11:39 51°27.825 3°2.033 6.1 50 5.9 102040 78
2004-03-24 11:40 51°27.784 3°1.627 6.2 49 5.9 102040 79
2004-03-24 11:41 51°27.743 3°1.22 6.1 58 5.9 102040 79
2004-03-24 11:42 51°27.703 3°0.812 6.9 58 5.9 102050 79
2004-03-24 11:43 51°27.661 3°0.402 7.8 57 5.9 102040 79
2004-03-24 11:44 51°27.618 2°59.993 6 50 5.9 102040 79
2004-03-24 11:45 51°27.557 2°59.589 6.4 54 6 102050 79
2004-03-24 11:46 51°27.496 2°59.185 6 57 6 102050 79
2004-03-24 11:47 51°27.436 2°58.783 6.8 44 6 102050 79
2004-03-24 11:48 51°27.376 2°58.379 6.4 56 6.1 102050 79
2004-03-24 11:49 51°27.315 2°57.977 8.1 57 6.1 102050 79
2004-03-24 11:50 51°27.255 2°57.577 7 67 6.1 102040 79
2004-03-24 11:51 51°27.193 2°57.176 6.7 56 6.1 102040 79
2004-03-24 11:52 51°27.132 2°56.776 6.5 51 6.1 102050 78
2004-03-24 11:53 51°27.071 2°56.371 7.1 62 6.1 102040 77
2004-03-24 11:54 51°27.01 2°55.96 5.7 67 6.1 102050 77
2004-03-24 11:55 51°26.953 2°55.563 6.3 64 6.2 102040 78
2004-03-24 11:56 51°26.901 2°55.157 9.4 64 6.3 102040 79
2004-03-24 11:57 51°26.85 2°54.751 9.3 64 6.3 102030 78
2004-03-24 11:58 51°26.797 2°54.345 11 62 6.3 102030 78
2004-03-24 11:59 51°26.747 2°53.936 11.7 55 6.3 102020 77
2004-03-24 12:00 51°26.697 2°53.529 10.5 62 6.2 102020 76
2004-03-24 12:01 51°26.645 2°53.113 10.5 59 6.3 102020 77
2004-03-24 12:02 51°26.593 2°52.704 11.5 60 6.3 102030 76
2004-03-24 12:03 51°26.544 2°52.307 11.8 63 6.4 102020 77
2004-03-24 12:04 51°26.494 2°51.908 11.7 62 6.3 102020 78
2004-03-24 12:05 51°26.453 2°51.513 11 56 6.2 102040 78
2004-03-24 12:06 51°26.42 2°51.137 11.6 61 6.2 102020 78
2004-03-24 12:07 51°26.383 2°50.755 11.4 64 6.2 102030 78
2004-03-24 12:08 51°26.347 2°50.376 9.6 71 6.2 102030 79
2004-03-24 12:09 51°26.31 2°49.996 10.4 69 6.2 102030 78
2004-03-24 12:10 51°26.264 2°49.618 10.6 66 6.1 102030 78
2004-03-24 12:11 51°26.216 2°49.237 9.8 63 6.1 102030 78
2004-03-24 12:12 51°26.115 2°48.899 7.7 89 6.2 102040 78
2004-03-24 12:13 51°26.009 2°48.659 10 84 6.2 102060 78
2004-03-24 12:14 51°26.019 2°48.526 10.3 42 6.2 102050 77
2004-03-24 12:15 51°26.021 2°48.482 8.1 25 6.1 102050 77
2004-03-24 12:16 51°26.012 2°48.457 8.3 16 6.2 102060 77
2004-03-24 12:17 51°26.01 2°48.441 7.5 354 6.3 102050 77
2004-03-24 12:18 51°26.006 2°48.438 7.7 339 6.4 102060 77
2004-03-24 12:19 51°26 2°48.443 9.6 330 6.4 102050 77
2004-03-24 12:20 51°25.992 2°48.454 8.7 333 6.3 102050 76
2004-03-24 12:21 51°25.982 2°48.459 7.8 328 6.3 102050 74
2004-03-24 12:22 51°25.969 2°48.464 8 337 6.3 102060 74
2004-03-24 12:23 51°25.953 2°48.466 8.3 319 6.4 102050 75
2004-03-24 12:24 51°25.954 2°48.517 10.1 299 6.4 102060 74
2004-03-24 12:25 51°25.843 2°48.624 5 109 6.4 102050 74
2004-03-24 12:26 51°25.709 2°48.403 7.4 80 6.4 102050 74
2004-03-24 12:27 51°25.603 2°48.063 7.3 74 6.4 102060 75
2004-03-24 12:28 51°25.511 2°47.709 7.7 71 6.3 102050 74
2004-03-24 12:29 51°25.413 2°47.363 7.4 77 6.3 102050 75
2004-03-24 12:30 51°25.317 2°47.015 7.8 80 6.3 102060 75
2004-03-24 12:31 51°25.219 2°46.671 7.8 64 6.3 102050 76
2004-03-24 12:32 51°25.123 2°46.326 9.8 82 6.3 102050 75
2004-03-24 12:33 51°25.026 2°45.984 8.3 78 6.2 102060 75
2004-03-24 12:34 51°24.926 2°45.633 8.3 80 6.2 102060 75
2004-03-24 12:35 51°24.831 2°45.289 6.5 71 6.2 102060 76
2004-03-24 12:36 51°24.736 2°44.952 7.5 73 6.2 102050 76
2004-03-24 12:37 51°24.639 2°44.613 7.8 78 6.2 102060 76
2004-03-24 12:38 51°24.544 2°44.275 7.1 75 6.2 102060 75
2004-03-24 12:39 51°24.447 2°43.938 8.6 63 6.2 102060 75
2004-03-24 12:40 51°24.352 2°43.602 8.1 77 6.2 102060 76
2004-03-24 12:41 51°24.258 2°43.265 8.7 72 6.2 102060 76
2004-03-24 12:42 51°24.146 2°42.946 7.5 74 6.2 102070 75
2004-03-24 12:43 51°24.033 2°42.625 7.8 81 6.2 102060 75
2004-03-24 12:44 51°23.908 2°42.316 5.8 78 6.2 102070 75
2004-03-24 12:45 51°23.768 2°42.013 6.5 76 6.2 102070 76
2004-03-24 12:46 51°23.627 2°41.728 8.8 86 6.2 102070 76
2004-03-24 12:47 51°23.479 2°41.445 4.9 74 6.3 102080 77
2004-03-24 12:48 51°23.33 2°41.166 6.6 94 6.3 102070 77
2004-03-24 12:49 51°23.18 2°40.886 7 81 6.3 102080 77
2004-03-24 12:50 51°23.035 2°40.613 7 84 6.2 102070 76
2004-03-24 12:51 51°22.895 2°40.323 6.3 71 6.2 102080 75
2004-03-24 12:52 51°22.765 2°40.024 5.7 67 6.2 102070 75
2004-03-24 12:53 51°22.64 2°39.722 6.9 79 6.2 102070 75
2004-03-24 12:54 51°22.52 2°39.413 6.9 80 6.2 102080 75
2004-03-24 12:55 51°22.408 2°39.113 6.7 80 6.2 102070 75
2004-03-24 12:56 51°22.299 2°38.794 6.2 75 6.3 102070 75
2004-03-24 12:57 51°22.202 2°38.483 6.1 69 6.3 102070 75
2004-03-24 12:58 51°22.101 2°38.159 7.5 77 6.3 102070 75
2004-03-24 12:59 51°21.999 2°37.848 6.7 79 6.3 102070 75
2004-03-24 13:00 51°21.902 2°37.531 7.3 79 6.3 102070 76
2004-03-24 13:01 51°21.806 2°37.217 8.4 88 6.3 102070 76
2004-03-24 13:02 51°21.716 2°36.898 7.9 80 6.3 102080 76
2004-03-24 13:03 51°21.628 2°36.588 6 76 6.3 102070 76
2004-03-24 13:04 51°21.538 2°36.271 7.3 80 6.3 102060 76
2004-03-24 13:05 51°21.447 2°35.959 8.6 85 6.4 102070 77
2004-03-24 13:06 51°21.357 2°35.638 10.2 84 6.4 102070 77
2004-03-24 13:07 51°21.27 2°35.326 6.3 75 6.4 102070 77
2004-03-24 13:08 51°21.186 2°35.015 7 91 6.4 102070 77
2004-03-24 13:09 51°21.097 2°34.706 6 73 6.4 102070 77
2004-03-24 13:10 51°21.009 2°34.39 9.3 84 6.4 102070 78
2004-03-24 13:11 51°20.944 2°34.064 7.8 64 6.4 102060 78
2004-03-24 13:12 51°20.881 2°33.745 8.8 86 6.4 102060 78
2004-03-24 13:13 51°20.815 2°33.421 8.5 86 6.4 102050 78
2004-03-24 13:14 51°20.75 2°33.098 7.4 73 6.4 102060 79
2004-03-24 13:15 51°20.683 2°32.775 10.6 86 6.4 102060 79
2004-03-24 13:16 51°20.615 2°32.454 7.2 86 6.3 102060 79
2004-03-24 13:17 51°20.547 2°32.127 7.8 84 6.3 102060 79
2004-03-24 13:18 51°20.478 2°31.81 7.2 92 6.3 102070 80
2004-03-24 13:19 51°20.409 2°31.498 6.6 85 6.2 102060 79
2004-03-24 13:20 51°20.344 2°31.19 9 92 6.3 102060 80
2004-03-24 13:21 51°20.273 2°30.879 9.7 96 6.4 102060 80
2004-03-24 13:22 51°20.206 2°30.58 8.8 83 6.3 102050 79
2004-03-24 13:23 51°20.144 2°30.312 8.8 108 6.4 102060 78
2004-03-24 13:24 51°20.096 2°30.151 6.1 134 6.4 102070 77
2004-03-24 13:25 51°20.071 2°30.052 8.8 103 6.5 102070 78
2004-03-24 13:26 51°20.051 2°29.984 8.6 127 6.5 102070 78
2004-03-24 13:27 51°20.034 2°29.951 9.1 111 6.5 102060 77
2004-03-24 13:28 51°20.035 2°29.976 8.7 87 6.5 102070 77
2004-03-24 13:29 51°20.042 2°29.992 10.6 94 6.5 102060 77
2004-03-24 13:30 51°20.046 2°29.999 8.5 108 6.5 102060 77
2004-03-24 13:31 51°20.044 2°30.006 9.7 136 6.6 102060 77
2004-03-24 13:32 51°20.034 2°30.021 10.9 135 6.6 102070 77
2004-03-24 13:33 51°20.028 2°30.048 11.5 129 6.5 102050 77
2004-03-24 13:34 51°20.015 2°30.07 7.3 158 6.4 102060 76
2004-03-24 13:35 51°19.922 2°30.162 10.6 275 6.5 102070 76
2004-03-24 13:36 51°19.782 2°30.476 9.9 286 6.4 102040 75
2004-03-24 13:37 51°19.634 2°30.801 11.4 295 6.4 102050 75
2004-03-24 13:38 51°19.49 2°31.116 10.1 282 6.4 102050 74
2004-03-24 13:39 51°19.344 2°31.427 10.2 291 6.4 102050 74
2004-03-24 13:40 51°19.201 2°31.739 8.5 273 6.4 102040 73
2004-03-24 13:41 51°19.049 2°32.033 9.4 285 6.5 102060 73
2004-03-24 13:42 51°18.903 2°32.326 7.1 286 6.5 102050 73
2004-03-24 13:43 51°18.747 2°32.624 9.5 289 6.5 102060 74
2004-03-24 13:44 51°18.597 2°32.92 10.9 288 6.5 102050 74
2004-03-24 13:45 51°18.447 2°33.209 8.2 288 6.5 102050 73
2004-03-24 13:46 51°18.294 2°33.506 10.3 293 6.6 102040 74
2004-03-24 13:47 51°18.139 2°33.815 10.6 291 6.5 102050 73
2004-03-24 13:48 51°17.989 2°34.12 9.6 296 6.6 102050 73
2004-03-24 13:49 51°17.847 2°34.427 10.2 304 6.6 102030 73
2004-03-24 13:50 51°17.701 2°34.726 10.6 301 6.5 102040 72
2004-03-24 13:51 51°17.553 2°35.042 8.7 306 6.6 102040 73
2004-03-24 13:52 51°17.403 2°35.348 9.5 301 6.6 102040 73
2004-03-24 13:53 51°17.249 2°35.655 11 301 6.6 102030 74
2004-03-24 13:54 51°17.095 2°35.962 12 300 6.7 102030 74
2004-03-24 13:55 51°16.945 2°36.268 9.7 291 6.6 102040 74
2004-03-24 13:56 51°16.802 2°36.563 9 295 6.6 102030 74
2004-03-24 13:57 51°16.704 2°36.753 7 226 6.6 102030 75
2004-03-24 13:58 51°16.654 2°36.756 8 158 6.6 102060 75
2004-03-24 13:59 51°16.642 2°36.755 9.1 142 6.6 102060 75
2004-03-24 14:00 51°16.645 2°36.765 8.6 129 6.5 102050 77
2004-03-24 14:01 51°16.653 2°36.781 10 126 6.4 102060 76
2004-03-24 14:02 51°16.662 2°36.804 9 114 6.4 102060 76
2004-03-24 14:03 51°16.673 2°36.831 8.8 120 6.5 102040 77
2004-03-24 14:04 51°16.683 2°36.86 9.8 117 6.5 102040 77
2004-03-24 14:05 51°16.694 2°36.89 10.2 110 6.4 102040 77
2004-03-24 14:06 51°16.704 2°36.921 8.6 106 6.4 102040 77
2004-03-24 14:07 51°16.715 2°36.95 8.8 111 6.4 102040 77
2004-03-24 14:08 51°16.727 2°36.972 9.3 114 6.4 102040 77
2004-03-24 14:09 51°16.741 2°36.985 8.7 108 6.4 102040 76
2004-03-24 14:10 51°16.752 2°36.973 9.6 118 6.4 102040 76
2004-03-24 14:11 51°16.761 2°36.961 9.3 121 6.4 102030 75
2004-03-24 14:12 51°16.773 2°36.965 8 112 6.4 102040 75
2004-03-24 14:13 51°16.786 2°36.976 13.2 111 6.4 102030 76
2004-03-24 14:14 51°16.774 2°36.95 7.2 184 6.3 102030 75
2004-03-24 14:15 51°16.665 2°37.026 5.6 233 6.2 102030 74
2004-03-24 14:16 51°16.46 2°37.094 4 221 6.1 102040 75
2004-03-24 14:17 51°16.249 2°37.155 3.8 248 6.1 102040 75
2004-03-24 14:18 51°16.034 2°37.244 4.9 263 6.1 102040 76
2004-03-24 14:19 51°15.825 2°37.372 7.4 272 6.1 102040 76
2004-03-24 14:20 51°15.615 2°37.515 6.1 262 6.1 102040 75
2004-03-24 14:21 51°15.407 2°37.681 7.6 266 6.1 102020 75
2004-03-24 14:22 51°15.208 2°37.863 8.5 270 6.1 102020 74
2004-03-24 14:23 51°15.001 2°38.062 6.2 282 6.1 102020 74
2004-03-24 14:24 51°14.805 2°38.254 7.6 276 6.2 102020 74
2004-03-24 14:25 51°14.597 2°38.442 7.1 279 6.2 102020 73
2004-03-24 14:26 51°14.393 2°38.604 4.9 267 6.2 102020 73
2004-03-24 14:27 51°14.182 2°38.712 2.7 252 6.3 102020 73
2004-03-24 14:28 51°13.967 2°38.726 3.4 231 6.4 102030 73
2004-03-24 14:29 51°13.764 2°38.634 1.7 165 6.4 102030 72
2004-03-24 14:30 51°13.564 2°38.504 0.8 139 6.6 102030 73
2004-03-24 14:31 51°13.364 2°38.376 1.2 118 6.8 102030 73
2004-03-24 14:32 51°13.166 2°38.245 0.9 101 7 102030 72
2004-03-24 14:33 51°12.971 2°38.121 1.6 136 7 102030 70
2004-03-24 14:34 51°12.766 2°37.999 2.1 133 7 102030 71
2004-03-24 14:35 51°12.571 2°37.859 3 131 7 102030 70
2004-03-24 14:36 51°12.377 2°37.721 3.5 136 7 102020 70
2004-03-24 14:37 51°12.18 2°37.579 2.8 136 6.9 102030 69
2004-03-24 14:38 51°11.981 2°37.432 1.7 137 6.8 102020 69
2004-03-24 14:39 51°11.786 2°37.29 2.2 142 6.7 102020 69
2004-03-24 14:40 51°11.592 2°37.154 1.8 131 6.7 102030 69
2004-03-24 14:41 51°11.395 2°37.014 1.7 147 6.7 102020 69
2004-03-24 14:42 51°11.2 2°36.883 1.8 161 6.8 102030 69
2004-03-24 14:43 51°11.001 2°36.745 2.6 158 6.8 102030 70
2004-03-24 14:44 51°10.805 2°36.606 1.1 153 6.9 102030 69
2004-03-24 14:45 51°10.608 2°36.491 1.7 189 6.9 102020 69
2004-03-24 14:46 51°10.409 2°36.384 1.5 160 6.8 102020 69
2004-03-24 14:47 51°10.195 2°36.382 4.8 261 6.8 102020 69
2004-03-24 14:48 51°10.005 2°36.564 12.1 299 6.7 102010 70
2004-03-24 14:49 51°9.971 2°36.928 14.3 336 6.7 101980 72
2004-03-24 14:50 51°10.05 2°37.303 14.2 341 6.7 101980 72
2004-03-24 14:51 51°10.146 2°37.675 15 340 6.7 101970 73
2004-03-24 14:52 51°10.224 2°38.058 15 336 6.6 101970 73
2004-03-24 14:53 51°10.297 2°38.444 14.3 333 6.6 101980 74
2004-03-24 14:54 51°10.372 2°38.831 15 338 6.4 101970 73
2004-03-24 14:55 51°10.443 2°39.216 13.8 336 6.4 101980 73
2004-03-24 14:56 51°10.522 2°39.606 13.9 343 6.5 101980 73
2004-03-24 14:57 51°10.605 2°39.985 14.4 343 6.5 101980 73
2004-03-24 14:58 51°10.689 2°40.358 16.1 340 6.5 101980 73
2004-03-24 14:59 51°10.775 2°40.742 14.1 340 6.4 101980 72
2004-03-24 15:00 51°10.856 2°41.118 14.4 339 6.4 101970 72
2004-03-24 15:01 51°10.935 2°41.508 14.8 339 6.4 101970 71
2004-03-24 15:02 51°11.01 2°41.85 12.9 350 6.4 101980 72
2004-03-24 15:03 51°11.082 2°41.995 11.1 9 6.5 102020 73
2004-03-24 15:04 51°11.09 2°42.037 8.2 21 6.5 102010 73
2004-03-24 15:05 51°11.088 2°42.069 8.1 32 6.4 102020 74
2004-03-24 15:06 51°11.08 2°42.101 8.7 44 6.3 102020 73
2004-03-24 15:07 51°11.071 2°42.136 7.3 72 6.2 102010 74
2004-03-24 15:08 51°11.064 2°42.175 9.2 94 6.3 102010 76
2004-03-24 15:09 51°11.061 2°42.215 8.5 116 6.3 102020 75
2004-03-24 15:10 51°11.058 2°42.206 5.5 145 6.2 102030 74
2004-03-24 15:11 51°10.981 2°42.209 10.4 275 6.3 102040 74
2004-03-24 15:12 51°10.966 2°42.401 12.2 342 6.3 102010 73
2004-03-24 15:13 51°11.065 2°42.704 14.3 341 6.4 101970 72
2004-03-24 15:14 51°11.149 2°43.074 16.1 334 6.4 101970 73
2004-03-24 15:15 51°11.226 2°43.445 15.2 340 6.5 101970 73
2004-03-24 15:16 51°11.305 2°43.818 15.3 341 6.5 101960 73
2004-03-24 15:17 51°11.385 2°44.197 16.7 340 6.6 101970 75
2004-03-24 15:18 51°11.464 2°44.568 17.6 339 6.6 101960 75
2004-03-24 15:19 51°11.545 2°44.932 16.8 339 6.6 101980 75
2004-03-24 15:20 51°11.628 2°45.311 15.4 339 6.6 101960 75
2004-03-24 15:21 51°11.711 2°45.685 13.3 343 6.6 101960 75
2004-03-24 15:22 51°11.794 2°46.052 13.7 343 6.6 101960 76
2004-03-24 15:23 51°11.883 2°46.42 16.1 340 6.6 101960 76
2004-03-24 15:24 51°11.977 2°46.796 15.1 344 6.7 101960 77
2004-03-24 15:25 51°12.076 2°47.16 14.9 343 6.6 101950 76
2004-03-24 15:26 51°12.185 2°47.511 15.2 347 6.6 101960 76
2004-03-24 15:27 51°12.298 2°47.87 14.2 347 6.5 101950 75
2004-03-24 15:28 51°12.407 2°48.22 14.8 344 6.5 101960 75
2004-03-24 15:29 51°12.52 2°48.571 15.9 341 6.6 101960 76
2004-03-24 15:30 51°12.636 2°48.919 16.7 344 6.5 101960 75
2004-03-24 15:31 51°12.754 2°49.273 16.3 344 6.5 101960 74
2004-03-24 15:32 51°12.871 2°49.621 16.9 345 6.6 101950 75
2004-03-24 15:33 51°12.988 2°49.967 16.4 340 6.5 101950 73
2004-03-24 15:34 51°13.104 2°50.317 14.2 346 6.5 101960 73
2004-03-24 15:35 51°13.22 2°50.662 16.7 348 6.6 101960 74
2004-03-24 15:36 51°13.336 2°51.017 15.3 341 6.6 101950 74
2004-03-24 15:37 51°13.454 2°51.365 17.3 347 6.5 101950 73
2004-03-24 15:38 51°13.569 2°51.707 18.6 337 6.5 101950 74
2004-03-24 15:39 51°13.688 2°52.062 15 341 6.6 101950 74
2004-03-24 15:40 51°13.798 2°52.408 15.2 340 6.6 101960 75
2004-03-24 15:41 51°13.902 2°52.773 15.1 338 6.6 101950 74
2004-03-24 15:42 51°14 2°53.122 15.8 342 6.6 101950 74
2004-03-24 15:43 51°14.1 2°53.484 15.6 332 6.6 101950 74
2004-03-24 15:44 51°14.198 2°53.834 16.2 335 6.6 101950 74
2004-03-24 15:45 51°14.292 2°54.191 15.8 331 6.5 101950 74
2004-03-24 15:46 51°14.366 2°54.56 14.6 330 6.6 101980 75
2004-03-24 15:47 51°14.375 2°54.917 13.9 309 6.6 101960 75
2004-03-24 15:48 51°14.291 2°55.193 7.7 279 6.5 101990 75
2004-03-24 15:49 51°14.176 2°55.371 2.9 262 6.5 102010 76
2004-03-24 15:50 51°14.055 2°55.464 4.4 258 6.6 102020 76